Regional Weather Roundup
Issued by NWS

Home | Current Version | Previous Version | Graphics & Text | Print | Product List | Glossary On
Versions: 1 2 3 4 5 6 7 8 9 10 11 12 13 14 15 16 17 18 19 20 21 22 23 24 25 26 27 28 29 30 31 32 33 34 35 36 37 38 39 40 41 42 43 44 45 46 47 48 49 50
000
ASUS43 KLOT 240621
RWRIL

ILLINOIS REGIONAL WEATHER ROUNDUP
NATIONAL WEATHER SERVICE CHICAGO/ROMEOVILLE IL
100 AM CDT SUN MAY 24 2015

NOTE: "FAIR" INDICATES FEW OR NO CLOUDS BELOW 12,000 FEET WITH NO
SIGNIFICANT WEATHER AND/OR OBSTRUCTIONS TO VISIBILITY.

* THESE STATIONS ARE NOT UNDER NWS QUALITY CONTROL. THEY ALSO MAY NOT
  REPORT WEATHER SUCH AS PRECIPITATION OR FOG.

ILZ001-002-007-009-015-016-024-240700-
NORTHWEST ILLINOIS

CITY           SKY/WX    TMP DP  RH WIND       PRES   REMARKS
MOLINE         CLOUDY    65  50  58 SE6       30.14R
6HR MIN TEMP:  60; 6HR MAX TEMP:  77;

STERLING*      CLOUDY    64  50  59 SE3       30.16S
SAVANNA*       CLOUDY    61  53  74 CALM      30.15S
$$

ILZ003-004-008-010-011-017-018-240700-
NORTH CENTRAL ILLINOIS

CITY           SKY/WX    TMP DP  RH WIND       PRES   REMARKS
ROCKFORD       CLOUDY    60  51  72 CALM      30.19S
6HR MIN TEMP:  59; 6HR MAX TEMP:  76;

FREEPORT*      MOCLDY    56  49  77 SE5       30.18F
ROCHELLE*      MOCLDY    61  50  66 SE3       30.18S
DE KALB*       MOCLDY    59  47  63 SE5       30.20R
PERU*          CLOUDY    68  48  49 S7        30.18S
$$

ILZ005-006-012>014-019>023-240700-
NORTHEAST ILLINOIS

CITY           SKY/WX    TMP DP  RH WIND       PRES   REMARKS
CHICAGO-OHARE  PTCLDY    65  45  48 S5        30.19F
6HR MIN TEMP:  61; 6HR MAX TEMP:  79;

CHICAGO-MIDWAY MOCLDY    69  45  41 S6        30.19F
6HR MIN TEMP:  68; 6HR MAX TEMP:  77;

AURORA         MOCLDY    62  46  55 SE6       30.19S
6HR MIN TEMP:  60; 6HR MAX TEMP:  79;

LANSING*       MOCLDY    63  44  50 CALM      30.20F
JOLIET*        MOCLDY    62  50  65 CALM      30.19S
WAUKEGAN       PTCLDY    50  43  77 CALM      30.18F
6HR MIN TEMP:  49; 6HR MAX TEMP:  62;

DUPAGE AIRPORT MOCLDY    63  47  55 S5        30.18F
6HR MIN TEMP:  59; 6HR MAX TEMP:  75;

KANKAKEE*      PTCLDY    61  49  65 SE3       30.20S
WHEELING       PTCLDY    57  46  66 CALM      30.20F
6HR MIN TEMP:  57; 6HR MAX TEMP:  74;

MORRIS*        MOCLDY    64  47  55 SE5       30.16F
ROMEOVILLE*    MOCLDY    61  46  59 S6        30.19S
NORTHERLY ISL    N/A     69  42  37 S7          N/A
$$

LMZ740>746-240700-
SOUTHERN LAKE MICHIGAN

STATION/POSITION SKY/WX   TEMP    WIND        PRES    VSBY  WAVE
                          AIR SEA DIR/SP/G                  HT/PER
                          (F)     (DEG/KT/KT) (MB)    (MI)  (FT/S)
SOUTHERN BUOY              48 38  160/  8/ 10 1023.0F         0
HARRISON CRIB              69     190/  9/  9   N/A
BURNHAM HARBOR             69     210/  5/  8   N/A
CALUMET HARBOR             69     190/  5/  9   N/A
BURNS HARBOR               68     190/  7/  9 1023.4S
MICHIGAN CITY              69     150/  8/ 12   N/A
MICHIGAN CITY 6N           60 54  190/  4/  4   N/A           0
ST. JOSEPH                 62 56  190/  6/  6   N/A           0
$$

ILZ025>027-034>036-040-047-049-050-058-095>099-240700-
WEST-CENTRAL ILLINOIS

CITY           SKY/WX    TMP DP  RH WIND       PRES   REMARKS
QUINCY         CLOUDY    68  50  52 S7        30.12R
GALESBURG*     CLOUDY    66  50  56 SE3       30.15S
MACOMB*        CLOUDY    68  51  54 SE7       30.16S
JACKSONVILLE*  CLOUDY    69  53  55 SE7       30.13F
PITTSFIELD*    CLOUDY    67  53  59 SE6       30.14S
$$

ILZ028>032-037-038-041>044-048-051>054-059>061-240700-
CENTRAL ILLINOIS

CITY           SKY/WX    TMP DP  RH WIND       PRES   REMARKS
PONTIAC        CLOUDY    64  51  63 SE6       30.19S
BLOOMINGTON    CLOUDY    68  51  54 S10       30.19F
DECATUR        CLOUDY    67  50  54 SE8       30.17F
PEORIA         CLOUDY    70  51  51 SE6       30.16S
6HR MIN TEMP:  69; 6HR MAX TEMP:  78;

LACON*         CLOUDY    67  49  52 SE7       30.16S
LINCOLN*       CLOUDY    69  50  50 S3        30.15S
SPRINGFIELD    CLOUDY    71  50  47 S9        30.16R
6HR MIN TEMP:  71; 6HR MAX TEMP:  77;

TAYLORVILLE    CLOUDY    64  50  59 SE8       30.16S
$$

ILZ033-039-045-046-055>057-062-063-240700-
EAST-CENTRAL ILLINOIS

CITY           SKY/WX    TMP DP  RH WIND       PRES   REMARKS
CHAMPAIGN      CLOUDY    67  50  54 SE7       30.20S
DANVILLE*      MOCLDY    63  50  62 CALM      30.18F
RANTOUL*       CLOUDY    66  52  60 SE5       30.19F
MATTOON        CLOUDY    62  51  67 SE6       30.18F
PARIS*         CLOUDY    64  51  60 SE3       30.20F
$$

ILZ079-100>102-240700-
SOUTHWEST ILLINOIS

CITY           SKY/WX    TMP DP  RH WIND       PRES   REMARKS
ALTON          CLOUDY    66  56  70 E7        30.14F
BELLEVILLE     CLOUDY    65  56  73 E5        30.13S
CAHOKIA*       CLOUDY    67  54  63 SE5       30.12F
SPARTA*        CLOUDY    65  55  70 SE6       30.15R
$$

ILZ064>066-069>071-074>076-080>082-084>086-088>090-092>094-240700-
SOUTH-CENTRAL ILLINOIS

CITY           SKY/WX    TMP DP  RH WIND       PRES   REMARKS
CARBONDALE     MOCLDY    64  54  69 SE5       30.15S
6HR MIN TEMP:  63; 6HR MAX TEMP:  75;

CAIRO*         PTCLDY    65  56  71 NE3       30.14F
EFFINGHAM*     MOCLDY    60  52  73 E5        30.18F
MARION         PTCLDY    66  54  63 SE5       30.16F
MT. VERNON     PTCLDY    64  50  59 E3        30.17S
CENTRALIA*     MOCLDY    64  51  62 E3        30.16S
SALEM*         MOCLDY    67  51  55 E5        30.16F
METROPOLIS*    CLEAR     65  56  75 CALM      30.15F
$$

ILZ067-068-072-073-078-083-087-091-240700-
SOUTHEAST ILLINOIS

CITY           SKY/WX    TMP DP  RH WIND       PRES   REMARKS
LAWRENCEVILLE  CLOUDY    62  53  72 E7        30.19F
FLORA*         CLOUDY    63  52  67 E5        30.18F
FAIRFIELD*     PTCLDY    64  53  67 CALM      30.16F
HARRISBURG*    CLEAR     63  56  79 E5        30.17F
ROBINSON*      CLOUDY    61  55  80 CALM      30.21S
CARMI*         PTCLDY    61  52  72 CALM      30.17F
$$

ABBREVIATIONS USED IN REMARKS
   TC - TEMPERATURE IN CELSIUS
  WCI - WIND CHILL INDEX
   HX - HEAT INDEX
  VSB - VISIBILITY
$$




USA.gov is the U.S. government's official web portal to all federal, state and local government web resources and services.